Location: Ellingshausen
(50.5460°N, 10.4723°E)
Time: 23:22:13
(UTC+00:00)

Meteor 2-5 Rocket - Pass Details

Date: 18 January 2026
Orbit: 833 x 910 km, 81.2° (Epoch: 17 February)

Event Time Altitude Azimuth Distance (km) Brightness Sun altitude
Rises 05:48:48 0° 346° (NNW) 3,504 6.6 -12.6°
Reaches altitude 10° 05:51:14 10° 346° (NNW) 2,571 5.9 -12.2°
Maximum altitude 05:57:07 79° 260° (W) 923 3.8 -11.3°
Drops below altitude 10° 06:03:01 10° 175° (S) 2,586 6.6 -10.5°
Sets 06:05:29 0° 174° (S) 3,526 7.3 -10.1°
